Weather History for Manchester, NH

Change the Weather History Date:

Thursday, January 17, 2013

  Actual Average Record
Temperature  
Mean Temperature 32 °F -  
Max Temperature 39 °F 29 °F 51 °F (1949)
Min Temperature 25 °F 4 °F -17 °F (1971)
Degree Days  
Heating Degree Days 33    
Moisture  
Dew Point 21 °F    
Average Humidity 72    
Maximum Humidity 100    
Minimum Humidity 37    
Precipitation  
Precipitation 0.00 in - - ()
Snow  
Snow 0.00 in - - ()
Snow Depth 4.00 in    
Sea Level Pressure  
Sea Level Pressure 29.96 in    
Wind  
Wind Speed 5 mph (WSW)    
Max Wind Speed 14 mph    
Max Gust Speed 20 mph    
Visibility 8 miles    
Events Fog    
Averages and records for this station are not official NWS values.
T = Trace of Precipitation, MM = Missing Value Source: NWS Daily Summary

Daily Weather History Graph

Daily Weather History Graph

Search for Another Location

Airport:

Trip Planner

Search our weather history database for the weather conditions in past years. The results will help you decide how hot, cold, wet, or windy it might be!

Date:

Astronomy

Jan. 17, 2013 Rise Set
Actual Time 7:12 AM EST 4:39 PM EST
Civil Twilight 6:41 AM EST 5:10 PM EST
Nautical Twilight 6:06 AM EST 5:45 PM EST
Astronomical Twilight 5:32 AM EST 6:19 PM EST
Moon 10:07 AM EST (1/17) 11:39 PM EST (1/17)
Length of Visible Light 10h 29m
Length of Day
9h 26m
Waxing Crescent, 37% of the Moon is Illuminated
Jan 17
Waxing Crescent
Jan 18
First Quarter
Jan 26
Full
Feb 3
Last Quarter
Feb 10
New

Hourly Weather History & Observations

Time (EST) Temp. Windchill Dew Point Humidity Pressure Visibility Wind Dir Wind Speed Gust Speed Precip Events Conditions
12:03 AM 30.2 °F 25.4 °F 28.4 °F 93% 29.79 in 0.2 mi SSW 4.6 mph - N/A Fog Light Freezing Fog
12:33 AM 28.4 °F 23.3 °F 28.4 °F 100% 29.80 in 0.1 mi SSW 4.6 mph - N/A Fog Light Freezing Fog
12:41 AM 28.4 °F 23.3 °F 28.4 °F 100% 29.80 in 0.1 mi SSW 4.6 mph - N/A Fog Light Freezing Fog
12:53 AM 28.0 °F 24.2 °F 27.0 °F 96% 29.86 in 0.0 mi SSW 3.5 mph - N/A Fog Light Freezing Fog
1:41 AM 26.6 °F - 26.6 °F 100% 29.82 in 0.0 mi Calm Calm - N/A Fog Light Freezing Fog
1:53 AM 27.0 °F 23.0 °F 25.0 °F 92% 29.88 in 0.1 mi SW 3.5 mph - N/A Fog Light Freezing Fog
2:53 AM 25.0 °F - 23.0 °F 92% 29.87 in 0.1 mi Calm Calm - N/A Fog Light Freezing Fog
3:17 AM 26.6 °F 22.6 °F 24.8 °F 93% 29.81 in 10.0 mi South 3.5 mph - N/A   Clear
3:53 AM 27.0 °F 21.6 °F 24.1 °F 89% 29.86 in 10.0 mi South 4.6 mph - N/A   Clear
4:53 AM 26.1 °F - 24.1 °F 92% 29.86 in 10.0 mi Calm Calm - N/A   Clear
5:53 AM 28.9 °F 22.8 °F 25.0 °F 85% 29.88 in 10.0 mi SSW 5.8 mph - N/A   Clear
6:53 AM 28.4 °F 22.2 °F 23.0 °F 80% 29.84 in 10.0 mi SSW 5.8 mph - N/A   Clear
7:53 AM 27.0 °F 18.7 °F 23.0 °F 85% 29.93 in 10.0 mi SSW 8.1 mph - N/A   Clear
8:53 AM 30.0 °F 22.4 °F 25.0 °F 82% 29.96 in 10.0 mi SSW 8.1 mph - N/A   Clear
9:53 AM 35.1 °F 29.3 °F 27.0 °F 72% 29.96 in 10.0 mi West 6.9 mph - N/A   Partly Cloudy
10:53 AM 37.0 °F 32.4 °F 28.9 °F 73% 29.97 in 10.0 mi SSW 5.8 mph - N/A   Partly Cloudy
11:53 AM 37.9 °F 33.5 °F 28.9 °F 70% 29.97 in 10.0 mi South 5.8 mph - N/A   Partly Cloudy
12:53 PM 39.0 °F 32.8 °F 28.0 °F 65% 29.97 in 10.0 mi West 9.2 mph - N/A   Scattered Clouds
1:53 PM 39.0 °F 34.0 °F 26.1 °F 60% 30.00 in 10.0 mi West 6.9 mph - N/A   Mostly Cloudy
2:53 PM 37.0 °F 31.0 °F 23.0 °F 57% 30.03 in 10.0 mi NW 8.1 mph - N/A   Mostly Cloudy
3:53 PM 35.1 °F 26.9 °F 19.9 °F 54% 30.06 in 10.0 mi NNW 11.5 mph 19.6 mph N/A   Scattered Clouds
4:53 PM 33.1 °F 24.9 °F 16.0 °F 50% 30.08 in 10.0 mi NW 10.4 mph - N/A   Partly Cloudy
5:53 PM 30.9 °F 23.5 °F 15.1 °F 52% 30.11 in 10.0 mi NW 8.1 mph - N/A   Partly Cloudy
6:53 PM 30.0 °F 22.4 °F 12.9 °F 49% 30.14 in 10.0 mi NNW 8.1 mph - N/A   Clear
7:53 PM 28.9 °F 21.1 °F 10.0 °F 45% 30.14 in 10.0 mi NNW 8.1 mph - N/A   Clear
8:53 PM 28.9 °F 22.8 °F 10.0 °F 45% 30.12 in 10.0 mi WNW 5.8 mph - N/A   Clear
9:53 PM 28.0 °F 17.0 °F 8.1 °F 43% 30.12 in 10.0 mi NW 13.8 mph 19.6 mph N/A   Clear
10:53 PM 27.0 °F 19.5 °F 5.0 °F 39% 30.12 in 10.0 mi NW 6.9 mph 16.1 mph N/A   Clear
11:53 PM 26.1 °F 17.6 °F 3.0 °F 37% 30.09 in 10.0 mi NW 8.1 mph - N/A   Clear